COSMOS 2528

Satellite information

Favourite Embed

Satellite Type and Status

PAYLOADIN ORBIT

Key statistics

Satellite COSMOS 2528 at a glance.

Uptime

2448

Days in orbit

Revolutions

≈ 14.0

Per day

Orbit

LEO

Low Earth Orbit

Inclination

67.1

Latest

Satellite identification and parameters

Extended collection of information and parameters for COSMOS 2528.

Object identification

Identified? True

Debris? False

Object name: COSMOS 2528

International designator: 2018-082A

Object number (NORAD): 43657

Object ID (CCSDS): 43657

Country: COMMONWEALTH OF INDEPENDENT STATES (CIS)

Current information (Y/N): Y

RCS size: LARGE

Orbital parameters

Period: 103.102 minutes

Inclination: 67.1467 deg

SMA: 7283.459 km

Apoapsis: 910.761 km

Periapsis: 899.887 km

RAAN: 194.9767 deg

Eccentricy: 0.0007465

Argument of periapsis: 256.4199 deg

Mean anomaly: 103.6054 deg

Mean motion: 13.9667784 rev/day

Mean motion (dot): -0.00000026 rev/day2

B* drag term: 0.000035385 1/REarth

Two-line elements (TLE)

Creation date: July 8, 2025, 2:27 a.m.

Reference frame: TEME

Reference center: EARTH

Epoch: July 7, 2025, 5:09 p.m. UTC

TLE line 0: 0 COSMOS 2528

TLE line 1: 1 43657U 18082A 25188.71521253 -.00000026 00000-0 35385-4 0 9991

TLE line 2: 2 43657 67.1467 194.9767 0007465 256.4199 103.6054 13.96677840341849

Live tracking on map

Real-time ground track for satellite COSMOS 2528.

In-orbit conjunctions

There are no conjunctions computed for COSMOS 2528, at the moment. Check back to stay up to date, as we update our databases every day.

Go to all conjunctions

Associated space launch

Lotos-S1 spacecraft is a part of the Liana constellation, designed for orbital electronic intelligence.

COSMOS 2528 was lifted into orbit during the mission ‘Soyuz 2.1B | Lotos-S1 (Kosmos 2528)’, on board a Soyuz 2.1b space rocket.

The launch took place on Oct. 25, 2018, 12:15 a.m. from 43/4 (43R).

For more information about the launch, click the button.

Launch to space Soyuz 2.1B | Lotos-S1 (Kosmos 2528)
Soyuz 2.1B | Lotos-S1 (Kosmos 2528)

Agency: N/A

Status: Launch Successful

Launch date: Oct. 25, 2018, 12:15 a.m. UTC

Rocket: Soyuz 2.1b

Launch pad: 43/4 (43R)

Location: Plesetsk Cosmodrome, Russian Federation

...

Latest news about this satellite

There are no fresh news available about this satellite. Check back as we update our databases every day.


Newsletter sign-up

Weekly statistics, charts and insights to help you stay on top of the space industry.